London-Corbin, KY

12:06 PM EDT on October 17, 2019 (GMT -0400)
London-Corbin / McKee

Weather History for KLOZ - September, 2019

Change the Weather History Date:

Saturday, September 21, 2019

  Actual Average Record
Temperature  
Mean Temperature 74 °F 66 °F  
Max Temperature 88 °F 78 °F 93 °F (1955)
Min Temperature 60 °F 55 °F 35 °F (1956)
Degree Days  
Heating Degree Days 0 2  
Month to date heating degree days 0 15  
Since 1 July heating degree days 0 16  
Cooling Degree Days 9 3  
Month to date cooling degree days 229 120  
Year to date cooling degree days 1343 1144  
Growing Degree Days 24 (Base 50)    
Moisture  
Dew Point 60 °F    
Average Humidity 68    
Maximum Humidity 100    
Minimum Humidity 35    
Precipitation  
Precipitation 0.00 in 0.11 in 2.37 in (1979)
Month to date precipitation T 2.35  
Sea Level Pressure  
Sea Level Pressure 30.23 in    
Wind  
Wind Speed 2 mph (SW)    
Max Wind Speed 10 mph    
Max Gust Speed 15 mph    
Visibility 10 miles    
Events      
T = Trace of Precipitation, MM = Missing Value Source: NWS Daily Summary

Daily Weather History Graph

Daily Weather History Graph

Search for Another Location

Airport or City:

Astronomy

Sep. 21, 2019 Rise Set
Actual Time 7:23 AM EDT 7:35 PM EDT
Civil Twilight 6:57 AM EDT 8:01 PM EDT
Nautical Twilight 6:26 AM EDT 8:31 PM EDT
Astronomical Twilight 5:55 AM EDT 9:02 PM EDT
Moon No Moon Rise 2:19 PM EDT (9/21)
Length of Visible Light 13h 03m
Length of Day
12h 11m
Waning Gibbous, 55% of the Moon is Illuminated
Sep 21
Waning Gibbous
Sep 21
Last Quarter
Sep 28
New
Oct 5
First Quarter
Oct 13
Full

Hourly Weather History & Observations

Time (EDT) Temp. Heat Index Dew Point Humidity Pressure Visibility Wind Dir Wind Speed Gust Speed Precip Events Conditions
12:53 AM 66.0 °F - 63.0 °F 90% 30.23 in 10.0 mi Calm Calm - N/A   Clear
1:53 AM 66.0 °F - 62.1 °F 87% 30.23 in 10.0 mi Calm Calm - N/A   Clear
2:53 AM 64.0 °F - 62.1 °F 93% 30.23 in 9.0 mi Calm Calm - N/A   Clear
3:53 AM 64.0 °F - 61.0 °F 90% 30.23 in 9.0 mi Calm Calm - N/A   Clear
4:53 AM 62.1 °F - 60.1 °F 93% 30.25 in 7.0 mi Calm Calm - N/A   Clear
5:53 AM 62.1 °F - 60.1 °F 93% 30.26 in 10.0 mi Calm Calm - N/A   Clear
6:53 AM 61.0 °F - 59.0 °F 93% 30.27 in 6.0 mi Calm Calm - N/A   Clear
7:53 AM 61.0 °F - 60.1 °F 97% 30.29 in 6.0 mi Calm Calm - N/A   Clear
8:53 AM 64.9 °F - 62.1 °F 90% 30.30 in 10.0 mi Calm Calm - N/A   Clear
9:53 AM 72.0 °F - 62.1 °F 71% 30.31 in 10.0 mi SW 4.6 mph - N/A   Clear
10:53 AM 75.9 °F - 57.0 °F 52% 30.31 in 10.0 mi SW 8.1 mph - N/A   Clear
11:53 AM 81.0 °F 81.1 °F 57.9 °F 45% 30.29 in 10.0 mi Variable 5.8 mph - N/A   Clear
12:53 PM 82.0 °F 81.7 °F 57.0 °F 42% 30.27 in 10.0 mi WSW 5.8 mph - N/A   Clear
1:53 PM 84.0 °F 83.5 °F 57.9 °F 41% 30.25 in 10.0 mi SW 5.8 mph - N/A   Clear
2:53 PM 87.1 °F 85.9 °F 57.0 °F 36% 30.22 in 10.0 mi Calm Calm - N/A   Clear
3:53 PM 86.0 °F 84.9 °F 57.0 °F 37% 30.20 in 10.0 mi Calm Calm - N/A   Clear
4:53 PM 87.1 °F 85.9 °F 57.0 °F 36% 30.18 in 10.0 mi Variable 5.8 mph - N/A   Clear
5:53 PM 86.0 °F 84.7 °F 55.9 °F 36% 30.17 in 10.0 mi Calm Calm - N/A   Clear
6:53 PM 84.0 °F 83.5 °F 57.9 °F 41% 30.17 in 10.0 mi SSE 3.5 mph - N/A   Clear
7:53 PM 78.1 °F - 63.0 °F 60% 30.17 in 10.0 mi Calm Calm - N/A   Clear
8:53 PM 73.0 °F - 62.1 °F 68% 30.19 in 10.0 mi Calm Calm - N/A   Clear
9:53 PM 71.1 °F - 62.1 °F 73% 30.19 in 10.0 mi Calm Calm - N/A   Clear
10:53 PM 68.0 °F - 63.0 °F 84% 30.19 in 10.0 mi Calm Calm - N/A   Clear
11:53 PM 66.0 °F - 62.1 °F 87% 30.19 in 10.0 mi Calm Calm - N/A   Clear